Location: Newark
(13.6797°N, 8.5297°E)
Time: 02:55:09
(UTC+00:00)

A-11 Canister half - All Passes

Search period start: 18 January 2020 00:00
Search period end: 28 January 2020 00:00
Orbit: 1516 x 1683 km, 47.2° (Epoch: 17 January)

Date Brightness Start Highest point End Pass type
(mag) Time Alt. Az. Time Alt. Az. Time Alt. Az.
18 Jan - 01:22:52 10° WNW 01:27:52 15° NNW 01:32:52 10° N night (unlit)
18 Jan - 07:46:21 10° NNW 07:55:05 41° NE 08:04:03 10° ESE daylight
18 Jan - 09:50:56 10° WNW 09:59:55 47° SW 10:09:15 10° SSE daylight
18 Jan - 20:47:07 10° S 20:54:22 24° SE 21:01:26 10° ENE visible
18 Jan - 22:49:22 10° SW 22:58:55 72° NW 23:08:13 10° NE night (unlit)
19 Jan - 00:59:19 10° WNW 01:04:49 17° NW 01:10:18 10° N night (unlit)
19 Jan - 07:23:33 10° NNW 07:32:07 38° NE 07:40:53 10° ESE daylight
19 Jan - 09:27:55 10° NW 09:37:01 51° SW 09:46:27 10° SSE daylight
19 Jan - 20:24:36 10° S 20:31:28 22° SE 20:38:09 10° E visible
19 Jan - 22:26:23 10° SW 22:36:01 78° NW 22:45:22 10° NE visible
20 Jan - 00:35:49 10° WNW 00:41:46 18° NW 00:47:41 10° N night (unlit)
20 Jan - 07:00:48 10° NNW 07:09:09 35° NE 07:17:42 10° ESE daylight
20 Jan - 09:04:55 10° NW 09:14:06 56° SW 09:23:38 10° SSE daylight
20 Jan - 20:02:09 10° S 20:08:33 19° SE 20:14:47 10° E visible
20 Jan - 22:03:26 10° SW 22:13:07 84° NW 22:22:30 10° NE visible
21 Jan - 00:12:22 10° W 00:18:45 20° NW 00:25:04 10° N night (unlit)
21 Jan - 06:38:03 10° NNW 06:46:11 33° NE 06:54:29 10° ESE daylight
21 Jan - 08:41:57 10° NW 08:51:12 60° SW 09:00:49 10° SSE daylight
21 Jan - 19:39:46 10° SSE 19:45:38 17° SE 19:51:22 10° E visible
21 Jan - 21:40:29 10° SW 21:50:13 90° SSE 21:59:37 10° NE visible
21 Jan - 23:48:58 10° W 23:55:43 21° NW 00:02:24 10° N night (unlit)
22 Jan - 06:15:19 10° NNW 06:23:13 30° NE 06:31:15 10° E daylight
22 Jan - 08:18:59 10° NW 08:28:18 65° SW 08:37:58 10° SSE daylight
22 Jan - 10:32:16 10° SW 10:33:00 10° SW 10:33:43 10° SW daylight
22 Jan - 19:17:29 10° SSE 19:22:42 16° SE 19:27:50 10° E visible
22 Jan - 21:17:33 10° SW 21:27:19 84° SE 21:36:43 10° NE visible
22 Jan - 23:25:36 10° W 23:32:42 23° NW 23:39:43 10° NNE night (unlit)
23 Jan - 05:52:35 10° NNW 06:00:13 28° NE 06:07:59 10° E daylight
23 Jan - 07:56:04 10° NW 08:05:24 71° SW 08:15:06 10° SSE daylight
23 Jan - 10:07:02 10° WSW 10:10:04 12° SW 10:13:06 10° SSW daylight
23 Jan - 18:55:20 10° SSE 18:59:47 14° SE 19:04:08 10° E visible
23 Jan - 20:54:39 10° SW 21:04:25 78° SE 21:13:49 10° NE visible
23 Jan - 23:02:16 10° W 23:09:42 25° NW 23:17:02 10° NNE night (unlit)
24 Jan - 05:29:52 10° NNW 05:37:14 26° NE 05:44:42 10° E visible
24 Jan - 07:33:08 10° NW 07:42:30 77° SW 07:52:13 10° SE daylight
24 Jan - 09:43:01 10° WSW 09:47:07 13° SW 09:51:18 10° SSW daylight
24 Jan - 18:33:26 10° SSE 18:36:51 12° SE 18:40:12 10° ESE visible
24 Jan - 20:31:45 10° SSW 20:41:30 72° SE 20:50:54 10° NE visible
24 Jan - 22:38:58 10° W 22:46:43 27° NW 22:54:19 10° NNE night (unlit)
25 Jan - 05:07:10 10° NNW 05:14:14 24° NE 05:21:22 10° E visible
25 Jan - 07:10:13 10° NW 07:19:36 83° SW 07:29:18 10° SE daylight
25 Jan - 09:19:16 10° W 09:24:12 15° SW 09:29:13 10° SSW daylight
25 Jan - 18:12:11 10° SE 18:13:54 11° SE 18:15:36 10° ESE visible
25 Jan - 20:08:53 10° SSW 20:18:36 67° SE 20:27:57 10° NE visible
25 Jan - 22:15:42 10° W 22:23:43 30° NW 22:31:36 10° NNE visible
26 Jan - 04:44:29 10° N 04:51:13 22° NE 04:58:01 10° E visible
26 Jan - 06:47:19 10° NW 06:56:42 89° SW 07:06:23 10° SE daylight
26 Jan - 08:55:43 10° W 09:01:16 17° SW 09:06:58 10° SSW daylight
26 Jan - 19:46:02 10° SSW 19:55:42 62° SE 20:05:00 10° NE visible
26 Jan - 21:52:27 10° WSW 22:00:45 32° NW 22:08:52 10° NNE visible
27 Jan - 04:21:50 10° N 04:28:12 20° NE 04:34:37 10° E visible
27 Jan - 06:24:26 10° NW 06:33:48 85° NE 06:43:28 10° SE daylight
27 Jan - 08:32:16 10° W 08:38:21 19° SW 08:44:36 10° S daylight
27 Jan - 19:23:11 10° SSW 19:32:48 57° SE 19:42:02 10° NE visible
27 Jan - 21:29:14 10° WSW 21:37:46 35° NW 21:46:07 10° NNE visible
